Time,TemperatureF,DewpointF,PressureIn,WindDirection,WindDirectionDegrees,WindSpeedMPH,WindSpeedGustMPH,Humidity,HourlyPrecipIn,Conditions,Clouds,dailyrainin,SoftwareType,DateUTC
2013-03-09 00:00:00,30.1,19.0,30.22,NNE,18,0.0,0.0,63,0.00,RA,,0.00,WeatherDisplay:10.37,2013-03-09 05:00:00,
2013-03-09 00:10:00,30.3,18.1,30.22,NNE,18,0.0,0.0,60,0.00,CLR,,0.00,WeatherDisplay:10.37,2013-03-09 05:10:00,
2013-03-09 00:15:00,29.6,17.4,30.22,NNE,18,0.0,0.0,60,0.00,CLR,,0.00,WeatherDisplay:10.37,2013-03-09 05:15:00,
2013-03-09 00:20:00,29.6,17.4,30.22,NNE,18,0.0,0.0,60,0.00,CLR,,0.00,WeatherDisplay:10.37,2013-03-09 05:20:00,
2013-03-09 00:25:00,29.8,17.6,30.23,NNE,18,0.0,0.0,60,0.00,CLR,,0.00,WeatherDisplay:10.37,2013-03-09 05:25:00,
2013-03-09 00:30:00,30.0,17.7,30.23,NNE,18,0.0,0.0,60,0.00,CLR,,0.00,WeatherDisplay:10.37,2013-03-09 05:30:00,
2013-03-09 00:40:00,29.4,17.3,30.23,NNE,18,0.0,0.0,60,0.00,CLR,,0.00,WeatherDisplay:10.37,2013-03-09 05:40:00,
2013-03-09 00:45:00,29.5,17.3,30.23,NNE,18,0.0,0.0,60,0.00,CLR,,0.00,WeatherDisplay:10.37,2013-03-09 05:45:00,
2013-03-09 00:50:00,29.5,17.3,30.23,NNE,18,0.0,0.0,60,0.00,CLR,,0.00,WeatherDisplay:10.37,2013-03-09 05:50:00,
2013-03-09 01:00:00,29.6,17.4,30.23,NNE,18,0.0,0.0,60,0.00,CLR,,0.00,WeatherDisplay:10.37,2013-03-09 06:00:00,
2013-03-09 01:05:00,29.8,17.5,30.23,NNE,18,0.0,0.0,60,0.00,CLR,,0.00,WeatherDisplay:10.37,2013-03-09 06:05:00,
2013-03-09 01:15:00,29.5,18.4,30.23,NNE,18,0.0,0.0,63,0.00,CLR,,0.00,WeatherDisplay:10.37,2013-03-09 06:15:00,
2013-03-09 01:20:00,29.1,18.1,30.23,NNE,18,0.0,0.0,63,0.00,CLR,,0.00,WeatherDisplay:10.37,2013-03-09 06:20:00,
2013-03-09 01:25:00,29.0,18.0,30.23,NNE,18,0.0,0.0,63,0.00,CLR,,0.00,WeatherDisplay:10.37,2013-03-09 06:25:00,
2013-03-09 01:30:00,29.2,18.1,30.23,NNE,18,0.0,0.0,63,0.00,CLR,,0.00,WeatherDisplay:10.37,2013-03-09 06:30:00,
2013-03-09 01:35:00,29.5,18.4,30.23,NNE,18,0.0,0.0,63,0.00,CLR,,0.00,WeatherDisplay:10.37,2013-03-09 06:35:00,
2013-03-09 01:40:00,29.0,18.0,30.23,NNE,18,0.0,0.0,63,0.00,CLR,,0.00,WeatherDisplay:10.37,2013-03-09 06:40:00,
2013-03-09 01:45:00,29.2,18.2,30.23,NNE,18,0.0,0.0,63,0.00,CLR,,0.00,WeatherDisplay:10.37,2013-03-09 06:45:00,
2013-03-09 01:50:00,28.7,17.7,30.22,NNE,18,0.0,0.0,63,0.00,CLR,,0.00,WeatherDisplay:10.37,2013-03-09 06:50:00,
2013-03-09 01:55:00,28.2,17.2,30.22,NNE,18,0.0,0.0,63,0.00,CLR,,0.00,WeatherDisplay:10.37,2013-03-09 06:55:00,
2013-03-09 02:00:00,27.8,16.9,30.23,NNE,18,0.0,0.0,63,0.00,CLR,,0.00,WeatherDisplay:10.37,2013-03-09 07:00:00,
2013-03-09 02:05:00,28.8,18.9,30.22,NNE,18,0.0,0.0,66,0.00,CLR,,0.00,WeatherDisplay:10.37,2013-03-09 07:05:00,
2013-03-09 02:10:00,28.0,18.1,30.22,NNE,18,0.0,0.0,66,0.00,CLR,,0.00,WeatherDisplay:10.37,2013-03-09 07:10:00,
2013-03-09 02:15:00,27.2,17.3,30.22,NNE,18,0.0,0.0,66,0.00,CLR,,0.00,WeatherDisplay:10.37,2013-03-09 07:15:00,
2013-03-09 02:20:00,27.3,17.4,30.22,NNE,18,0.0,0.0,66,0.00,CLR,,0.00,WeatherDisplay:10.37,2013-03-09 07:20:00,
2013-03-09 02:25:00,27.6,17.7,30.22,NNE,18,0.0,0.0,66,0.00,CLR,,0.00,WeatherDisplay:10.37,2013-03-09 07:25:00,
2013-03-09 02:35:00,27.2,17.3,30.22,NNE,18,0.0,0.0,66,0.00,CLR,,0.00,WeatherDisplay:10.37,2013-03-09 07:35:00,
2013-03-09 02:45:00,26.9,17.0,30.22,NNE,18,0.0,0.0,66,0.00,CLR,,0.00,WeatherDisplay:10.37,2013-03-09 07:45:00,
2013-03-09 02:50:00,27.2,17.3,30.22,NNE,18,0.0,0.0,66,0.00,CLR,,0.00,WeatherDisplay:10.37,2013-03-09 07:50:00,
2013-03-09 02:55:00,26.6,16.7,30.22,NNE,16,0.0,3.0,66,0.00,CLR,,0.00,WeatherDisplay:10.37,2013-03-09 07:55:00,
2013-03-09 03:00:00,26.6,16.8,30.22,NNE,14,0.0,0.0,66,0.00,CLR,,0.00,WeatherDisplay:10.37,2013-03-09 08:00:00,
2013-03-09 03:05:00,26.9,18.8,30.21,NNE,13,0.0,0.0,71,0.00,CLR,,0.00,WeatherDisplay:10.37,2013-03-09 08:05:00,
2013-03-09 03:10:00,26.6,18.4,30.21,NNE,13,0.0,0.0,71,0.00,CLR,,0.00,WeatherDisplay:10.37,2013-03-09 08:10:00,
2013-03-09 03:15:00,26.7,18.6,30.21,NNE,13,0.0,0.0,71,0.00,CLR,,0.00,WeatherDisplay:10.37,2013-03-09 08:15:00,
2013-03-09 03:20:00,27.3,19.1,30.21,NNE,13,0.0,0.0,71,0.00,CLR,,0.00,WeatherDisplay:10.37,2013-03-09 08:20:00,
2013-03-09 03:25:00,27.3,19.2,30.21,NNE,13,0.0,0.0,71,0.00,CLR,,0.00,WeatherDisplay:10.37,2013-03-09 08:25:00,
2013-03-09 03:30:00,27.1,19.0,30.21,NNE,13,0.0,0.0,71,0.00,CLR,,0.00,WeatherDisplay:10.37,2013-03-09 08:30:00,
2013-03-09 03:35:00,27.6,19.4,30.21,NNE,13,0.0,0.0,71,0.00,CLR,,0.00,WeatherDisplay:10.37,2013-03-09 08:35:00,
2013-03-09 03:40:00,27.5,19.3,30.21,NNE,13,0.0,0.0,71,0.00,CLR,,0.00,WeatherDisplay:10.37,2013-03-09 08:40:00,
2013-03-09 03:45:00,26.8,18.7,30.21,NNE,13,0.0,0.0,71,0.00,CLR,,0.00,WeatherDisplay:10.37,2013-03-09 08:45:00,
2013-03-09 03:50:00,26.9,18.7,30.21,NNE,13,0.0,0.0,71,0.00,CLR,,0.00,WeatherDisplay:10.37,2013-03-09 08:50:00,
2013-03-09 03:55:00,27.0,18.8,30.21,NNE,13,0.0,0.0,71,0.00,CLR,,0.00,WeatherDisplay:10.37,2013-03-09 08:55:00,
2013-03-09 04:00:00,26.8,18.6,30.22,NNE,13,0.0,0.0,71,0.00,CLR,,0.00,WeatherDisplay:10.37,2013-03-09 09:00:00,
2013-03-09 04:05:00,26.6,24.3,30.22,NNE,13,0.0,0.0,91,0.00,CLR,,0.00,WeatherDisplay:10.37,2013-03-09 09:05:00,
2013-03-09 04:10:00,26.6,24.3,30.22,NNE,13,0.0,0.0,91,0.00,CLR,,0.00,WeatherDisplay:10.37,2013-03-09 09:10:00,
2013-03-09 04:15:00,26.4,24.2,30.22,NNE,13,0.0,0.0,91,0.00,CLR,,0.00,WeatherDisplay:10.37,2013-03-09 09:15:00,
2013-03-09 04:20:00,26.6,24.4,30.23,NNE,13,0.0,0.0,91,0.00,CLR,,0.00,WeatherDisplay:10.37,2013-03-09 09:20:00,
2013-03-09 04:25:00,26.5,24.2,30.23,NNE,13,0.0,0.0,91,0.00,CLR,,0.00,WeatherDisplay:10.37,2013-03-09 09:25:00,
2013-03-09 04:30:00,27.2,24.9,30.23,NNE,13,0.0,0.0,91,0.00,CLR,,0.00,WeatherDisplay:10.37,2013-03-09 09:30:00,
2013-03-09 04:35:00,27.4,25.1,30.23,NNE,13,0.0,0.0,91,0.00,CLR,,0.00,WeatherDisplay:10.37,2013-03-09 09:35:00,
2013-03-09 04:40:00,27.0,24.7,30.24,NNE,13,0.0,0.0,91,0.00,CLR,,0.00,WeatherDisplay:10.37,2013-03-09 09:40:00,
2013-03-09 04:50:00,26.7,24.5,30.24,NNE,13,0.0,0.0,91,0.00,CLR,,0.00,WeatherDisplay:10.37,2013-03-09 09:50:00,
2013-03-09 04:55:00,26.2,24.0,30.24,NNE,13,0.0,0.0,91,0.00,CLR,,0.00,WeatherDisplay:10.37,2013-03-09 09:55:00,
2013-03-09 05:00:00,26.8,24.5,30.24,NNE,13,0.0,0.0,91,0.00,CLR,,0.00,WeatherDisplay:10.37,2013-03-09 10:00:00,
2013-03-09 05:05:00,26.3,25.3,30.24,NNE,13,0.0,0.0,96,0.00,CLR,,0.00,WeatherDisplay:10.37,2013-03-09 10:05:00,
2013-03-09 05:10:00,26.1,25.1,30.24,NNE,13,0.0,0.0,96,0.00,CLR,,0.00,WeatherDisplay:10.37,2013-03-09 10:10:00,
2013-03-09 05:20:00,26.0,25.0,30.25,NNE,13,0.0,0.0,96,0.00,CLR,,0.00,WeatherDisplay:10.37,2013-03-09 10:20:00,
2013-03-09 05:25:00,26.7,25.7,30.25,NNE,13,0.0,0.0,96,0.00,CLR,,0.00,WeatherDisplay:10.37,2013-03-09 10:25:00,
2013-03-09 05:30:00,26.7,25.8,30.25,NNE,13,0.0,0.0,96,0.00,CLR,,0.00,WeatherDisplay:10.37,2013-03-09 10:30:00,
2013-03-09 05:35:00,26.5,25.5,30.25,NNE,13,0.0,0.0,96,0.00,CLR,,0.00,WeatherDisplay:10.37,2013-03-09 10:35:00,
2013-03-09 05:40:00,26.9,25.9,30.25,NNE,13,0.0,0.0,96,0.00,CLR,,0.00,WeatherDisplay:10.37,2013-03-09 10:40:00,
2013-03-09 05:45:00,26.8,25.8,30.25,NNE,13,0.0,0.0,96,0.00,CLR,,0.00,WeatherDisplay:10.37,2013-03-09 10:45:00,
2013-03-09 05:50:00,26.4,25.4,30.25,NNE,13,0.0,0.0,96,0.00,CLR,,0.00,WeatherDisplay:10.37,2013-03-09 10:50:00,
2013-03-09 05:55:00,25.8,24.8,30.25,NNE,13,0.0,0.0,96,0.00,CLR,,0.00,WeatherDisplay:10.37,2013-03-09 10:55:00,
2013-03-09 06:00:00,26.1,25.2,30.26,NNE,13,0.0,0.0,96,0.00,CLR,,0.00,WeatherDisplay:10.37,2013-03-09 11:00:00,
2013-03-09 06:05:00,26.0,22.9,30.26,NNE,13,0.0,0.0,88,0.00,CLR,,0.00,WeatherDisplay:10.37,2013-03-09 11:05:00,
2013-03-09 06:10:00,26.0,22.9,30.26,NNE,13,0.0,0.0,88,0.00,CLR,,0.00,WeatherDisplay:10.37,2013-03-09 11:10:00,
2013-03-09 06:15:00,25.8,22.7,30.26,NNE,13,0.0,0.0,88,0.00,CLR,,0.00,WeatherDisplay:10.37,2013-03-09 11:15:00,
2013-03-09 06:20:00,25.3,22.3,30.26,NNE,13,0.0,0.0,88,0.00,CLR,,0.00,WeatherDisplay:10.37,2013-03-09 11:20:00,
2013-03-09 06:25:00,26.4,23.4,30.27,NNE,13,0.0,0.0,88,0.00,CLR,,0.00,WeatherDisplay:10.37,2013-03-09 11:25:00,
2013-03-09 06:30:00,26.4,23.3,30.27,NNE,13,0.0,0.0,88,0.00,CLR,,0.00,WeatherDisplay:10.37,2013-03-09 11:30:00,
2013-03-09 06:40:00,26.8,23.7,30.27,NNE,16,1.0,6.0,88,0.00,CLR,,0.00,WeatherDisplay:10.37,2013-03-09 11:40:00,
2013-03-09 06:50:00,26.6,23.5,30.28,NNE,24,0.0,0.0,88,0.00,CLR,,0.00,WeatherDisplay:10.37,2013-03-09 11:50:00,
2013-03-09 06:55:00,26.8,23.8,30.27,NNE,24,0.0,0.0,88,0.00,CLR,,0.00,WeatherDisplay:10.37,2013-03-09 11:55:00,
2013-03-09 07:00:00,27.0,23.9,30.28,NNE,24,0.0,0.0,88,0.00,CLR,,0.00,WeatherDisplay:10.37,2013-03-09 12:00:00,
2013-03-09 07:10:00,27.1,24.9,30.28,NNE,24,0.0,0.0,91,0.00,CLR,,0.00,WeatherDisplay:10.37,2013-03-09 12:10:00,
2013-03-09 07:15:00,26.9,24.6,30.28,NNE,24,0.0,0.0,91,0.00,CLR,,0.00,WeatherDisplay:10.37,2013-03-09 12:15:00,
2013-03-09 07:20:00,27.5,25.2,30.28,NNE,24,0.0,0.0,91,0.00,CLR,,0.00,WeatherDisplay:10.37,2013-03-09 12:20:00,
2013-03-09 07:25:00,26.9,24.7,30.28,NNE,24,0.0,0.0,91,0.00,CLR,,0.00,WeatherDisplay:10.37,2013-03-09 12:25:00,
2013-03-09 07:30:00,27.7,25.4,30.28,NNE,24,0.0,0.0,91,0.00,CLR,,0.00,WeatherDisplay:10.37,2013-03-09 12:30:00,
2013-03-09 07:35:00,28.0,25.7,30.28,NNE,24,0.0,0.0,91,0.00,CLR,,0.00,WeatherDisplay:10.37,2013-03-09 12:35:00,
2013-03-09 07:40:00,27.8,25.5,30.28,NNE,24,0.0,0.0,91,0.00,CLR,,0.00,WeatherDisplay:10.37,2013-03-09 12:40:00,
2013-03-09 07:45:00,28.0,25.7,30.28,NNE,24,0.0,0.0,91,0.00,CLR,,0.00,WeatherDisplay:10.37,2013-03-09 12:45:00,
2013-03-09 07:50:00,28.0,25.7,30.27,NNE,24,0.0,0.0,91,0.00,CLR,,0.00,WeatherDisplay:10.37,2013-03-09 12:50:00,
2013-03-09 07:55:00,28.8,26.5,30.27,NNE,24,0.0,0.0,91,0.00,CLR,,0.00,WeatherDisplay:10.37,2013-03-09 12:55:00,
2013-03-09 08:00:00,29.2,26.9,30.27,NNE,24,0.0,0.0,91,0.00,CLR,,0.00,WeatherDisplay:10.37,2013-03-09 13:00:00,
2013-03-09 08:05:00,29.4,24.2,30.27,NNE,24,0.0,0.0,81,0.00,CLR,,0.00,WeatherDisplay:10.37,2013-03-09 13:05:00,
2013-03-09 08:10:00,29.6,24.4,30.27,NNE,24,0.0,0.0,81,0.00,CLR,,0.00,WeatherDisplay:10.37,2013-03-09 13:10:00,
2013-03-09 08:20:00,31.1,25.9,30.27,NNE,24,0.0,0.0,81,0.00,CLR,,0.00,WeatherDisplay:10.37,2013-03-09 13:20:00,
2013-03-09 08:25:00,31.7,26.6,30.27,NNE,24,0.0,0.0,81,0.00,CLR,,0.00,WeatherDisplay:10.37,2013-03-09 13:25:00,
2013-03-09 08:30:00,31.8,26.6,30.27,NNE,24,0.0,0.0,81,0.00,CLR,,0.00,WeatherDisplay:10.37,2013-03-09 13:30:00,
2013-03-09 08:35:00,32.4,27.3,30.27,NNE,24,0.0,0.0,81,0.00,CLR,,0.00,WeatherDisplay:10.37,2013-03-09 13:35:00,
2013-03-09 08:40:00,33.1,27.9,30.27,NNE,24,0.0,0.0,81,0.00,CLR,,0.00,WeatherDisplay:10.37,2013-03-09 13:40:00,
2013-03-09 08:50:00,33.8,28.6,30.27,NNE,24,0.0,0.0,81,0.00,CLR,,0.00,WeatherDisplay:10.37,2013-03-09 13:50:00,
2013-03-09 08:55:00,35.1,29.8,30.27,NNE,24,0.0,0.0,81,0.00,CLR,,0.00,WeatherDisplay:10.37,2013-03-09 13:55:00,
2013-03-09 09:00:00,35.6,30.3,30.26,NNE,24,0.0,0.0,81,0.00,CLR,,0.00,WeatherDisplay:10.37,2013-03-09 14:00:00,
2013-03-09 09:05:00,35.9,18.5,30.26,NNE,24,0.0,0.0,49,0.00,CLR,,0.00,WeatherDisplay:10.37,2013-03-09 14:05:00,
2013-03-09 09:10:00,36.7,19.3,30.26,NNE,24,0.0,0.0,49,0.00,CLR,,0.00,WeatherDisplay:10.37,2013-03-09 14:10:00,
2013-03-09 09:15:00,37.1,19.7,30.26,NNE,24,0.0,0.0,49,0.00,CLR,,0.00,WeatherDisplay:10.37,2013-03-09 14:15:00,
2013-03-09 09:20:00,37.9,20.4,30.26,NNE,24,0.0,0.0,49,0.00,CLR,,0.00,WeatherDisplay:10.37,2013-03-09 14:20:00,
2013-03-09 09:25:00,38.2,20.7,30.26,NNE,24,0.0,0.0,49,0.00,CLR,,0.00,WeatherDisplay:10.37,2013-03-09 14:25:00,
2013-03-09 09:30:00,39.1,21.5,30.26,NNE,24,0.0,0.0,49,0.00,CLR,,0.00,WeatherDisplay:10.37,2013-03-09 14:30:00,
2013-03-09 09:35:00,39.5,21.9,30.26,NNE,24,0.0,5.0,49,0.00,CLR,,0.00,WeatherDisplay:10.37,2013-03-09 14:35:00,
2013-03-09 09:40:00,39.8,22.2,30.26,NNE,17,0.0,5.0,49,0.00,CLR,,0.00,WeatherDisplay:10.37,2013-03-09 14:40:00,
2013-03-09 09:50:00,40.7,23.0,30.26,NE,36,0.0,0.0,49,0.00,CLR,,0.00,WeatherDisplay:10.37,2013-03-09 14:50:00,
2013-03-09 09:55:00,41.3,23.5,30.26,NE,41,0.0,0.0,49,0.00,CLR,,0.00,WeatherDisplay:10.37,2013-03-09 14:55:00,
2013-03-09 10:00:00,42.1,24.3,30.26,NE,41,0.0,3.0,49,0.00,CLR,,0.00,WeatherDisplay:10.37,2013-03-09 15:00:00,
2013-03-09 10:05:00,41.7,21.9,30.27,NE,41,0.0,0.0,45,0.00,CLR,,0.00,WeatherDisplay:10.37,2013-03-09 15:05:00,
2013-03-09 10:10:00,42.6,22.7,30.26,NE,41,0.0,0.0,45,0.00,CLR,,0.00,WeatherDisplay:10.37,2013-03-09 15:10:00,
2013-03-09 10:15:00,43.5,23.5,30.26,North,7,0.0,7.0,45,0.00,CLR,,0.00,WeatherDisplay:10.37,2013-03-09 15:15:00,
2013-03-09 10:20:00,44.1,24.1,30.27,NNW,340,0.0,0.0,45,0.00,CLR,,0.00,WeatherDisplay:10.37,2013-03-09 15:20:00,
2013-03-09 10:25:00,43.7,23.7,30.27,NNW,340,0.0,0.0,45,0.00,CLR,,0.00,WeatherDisplay:10.37,2013-03-09 15:25:00,
2013-03-09 10:30:00,43.4,23.4,30.27,NW,308,0.0,5.0,45,0.00,CLR,,0.00,WeatherDisplay:10.37,2013-03-09 15:30:00,
2013-03-09 10:40:00,44.7,24.6,30.27,WNW,303,0.0,0.0,45,0.00,CLR,,0.00,WeatherDisplay:10.37,2013-03-09 15:40:00,
2013-03-09 10:45:00,43.6,23.6,30.27,NNW,329,0.0,0.0,45,0.00,CLR,,0.00,WeatherDisplay:10.37,2013-03-09 15:45:00,
2013-03-09 10:50:00,43.8,23.8,30.27,NNW,344,0.0,6.0,45,0.00,CLR,,0.00,WeatherDisplay:10.37,2013-03-09 15:50:00,
2013-03-09 10:55:00,43.8,23.8,30.27,North,357,0.0,0.0,45,0.00,CLR,,0.00,WeatherDisplay:10.37,2013-03-09 15:55:00,
2013-03-09 11:00:00,43.7,23.8,30.27,North,357,0.0,0.0,45,0.00,CLR,,0.00,WeatherDisplay:10.37,2013-03-09 16:00:00,
2013-03-09 11:05:00,45.1,18.3,30.27,North,357,0.0,1.0,34,0.00,CLR,,0.00,WeatherDisplay:10.37,2013-03-09 16:05:00,
2013-03-09 11:10:00,44.8,18.1,30.27,North,357,0.0,0.0,34,0.00,CLR,,0.00,WeatherDisplay:10.37,2013-03-09 16:10:00,
2013-03-09 11:15:00,45.9,19.1,30.27,North,357,0.0,3.0,34,0.00,CLR,,0.00,WeatherDisplay:10.37,2013-03-09 16:15:00,
2013-03-09 11:20:00,46.0,19.1,30.27,North,357,0.0,3.0,34,0.00,CLR,,0.00,WeatherDisplay:10.37,2013-03-09 16:20:00,
2013-03-09 11:25:00,46.3,19.4,30.27,North,357,0.0,0.0,34,0.00,CLR,,0.00,WeatherDisplay:10.37,2013-03-09 16:25:00,
2013-03-09 11:30:00,47.4,20.4,30.27,North,357,0.0,2.0,34,0.00,CLR,,0.00,WeatherDisplay:10.37,2013-03-09 16:30:00,
2013-03-09 11:35:00,46.8,19.9,30.27,North,2,0.0,3.0,34,0.00,CLR,,0.00,WeatherDisplay:10.37,2013-03-09 16:35:00,
2013-03-09 11:40:00,46.6,19.7,30.27,NE,48,1.0,9.0,34,0.00,CLR,,0.00,WeatherDisplay:10.37,2013-03-09 16:40:00,
2013-03-09 11:45:00,46.9,20.0,30.27,ENE,78,0.0,0.0,34,0.00,CLR,,0.00,WeatherDisplay:10.37,2013-03-09 16:45:00,
2013-03-09 11:50:00,47.6,20.6,30.27,East,85,0.0,0.0,34,0.00,CLR,,0.00,WeatherDisplay:10.37,2013-03-09 16:50:00,
2013-03-09 11:55:00,48.2,21.1,30.27,East,85,0.0,0.0,34,0.00,CLR,,0.00,WeatherDisplay:10.37,2013-03-09 16:55:00,
2013-03-09 12:05:00,47.7,15.3,30.27,East,85,0.0,0.0,27,0.00,CLR,,0.00,WeatherDisplay:10.37,2013-03-09 17:05:00,
2013-03-09 12:10:00,48.8,16.3,30.27,East,85,0.0,0.0,27,0.00,CLR,,0.00,WeatherDisplay:10.37,2013-03-09 17:10:00,
2013-03-09 12:15:00,48.8,16.2,30.27,East,85,0.0,3.0,27,0.00,CLR,,0.00,WeatherDisplay:10.37,2013-03-09 17:15:00,
2013-03-09 12:25:00,49.4,16.7,30.27,East,85,0.0,0.0,27,0.00,CLR,,0.00,WeatherDisplay:10.37,2013-03-09 17:25:00,
2013-03-09 12:30:00,49.2,16.6,30.26,East,85,0.0,0.0,27,0.00,CLR,,0.00,WeatherDisplay:10.37,2013-03-09 17:30:00,
2013-03-09 12:35:00,49.8,17.1,30.26,East,85,0.0,0.0,27,0.00,CLR,,0.00,WeatherDisplay:10.37,2013-03-09 17:35:00,
2013-03-09 12:40:00,49.4,16.8,30.26,NNE,16,0.0,6.0,27,0.00,CLR,,0.00,WeatherDisplay:10.37,2013-03-09 17:40:00,
2013-03-09 12:50:00,50.7,17.9,30.26,NW,323,0.0,5.0,27,0.00,CLR,,0.00,WeatherDisplay:10.37,2013-03-09 17:50:00,
2013-03-09 12:55:00,50.8,18.0,30.25,SE,136,0.0,6.0,27,0.00,CLR,,0.00,WeatherDisplay:10.37,2013-03-09 17:55:00,
2013-03-09 13:00:00,50.9,18.1,30.25,SE,128,0.0,8.0,27,0.00,CLR,,0.00,WeatherDisplay:10.37,2013-03-09 18:00:00,
2013-03-09 13:05:00,50.5,10.9,30.25,ENE,65,0.0,6.0,20,0.00,CLR,,0.00,WeatherDisplay:10.37,2013-03-09 18:05:00,
2013-03-09 13:10:00,49.8,10.3,30.25,North,11,0.0,0.0,20,0.00,CLR,,0.00,WeatherDisplay:10.37,2013-03-09 18:10:00,
2013-03-09 13:15:00,50.8,11.1,30.25,North,11,0.0,0.0,20,0.00,CLR,,0.00,WeatherDisplay:10.37,2013-03-09 18:15:00,
2013-03-09 13:20:00,51.0,11.3,30.25,North,11,0.0,0.0,20,0.00,CLR,,0.00,WeatherDisplay:10.37,2013-03-09 18:20:00,
2013-03-09 13:25:00,51.5,11.7,30.25,North,11,0.0,0.0,20,0.00,CLR,,0.00,WeatherDisplay:10.37,2013-03-09 18:25:00,
2013-03-09 13:30:00,50.8,11.1,30.25,North,11,0.0,0.0,20,0.00,CLR,,0.00,WeatherDisplay:10.37,2013-03-09 18:30:00,
2013-03-09 13:40:00,51.2,11.4,30.24,North,11,0.0,0.0,20,0.00,CLR,,0.00,WeatherDisplay:10.37,2013-03-09 18:40:00,
2013-03-09 13:45:00,51.5,11.7,30.24,North,11,0.0,0.0,20,0.00,CLR,,0.00,WeatherDisplay:10.37,2013-03-09 18:45:00,
2013-03-09 13:55:00,52.1,12.2,30.24,North,11,0.0,0.0,20,0.00,CLR,,0.00,WeatherDisplay:10.37,2013-03-09 18:55:00,
2013-03-09 14:00:00,51.2,11.4,30.24,North,11,0.0,0.0,20,0.00,CLR,,0.00,WeatherDisplay:10.37,2013-03-09 19:00:00,
2013-03-09 14:05:00,51.9,2.5,30.24,North,11,0.0,0.0,13,0.00,CLR,,0.00,WeatherDisplay:10.37,2013-03-09 19:05:00,
2013-03-09 14:15:00,50.8,1.6,30.24,NNE,13,0.0,3.0,13,0.00,CLR,,0.00,WeatherDisplay:10.37,2013-03-09 19:15:00,
2013-03-09 14:25:00,49.8,0.8,30.24,NNE,16,0.0,0.0,13,0.00,CLR,,0.00,WeatherDisplay:10.37,2013-03-09 19:25:00,
2013-03-09 14:35:00,48.8,0.0,30.24,NNW,330,0.0,0.0,13,0.00,CLR,,0.00,WeatherDisplay:10.37,2013-03-09 19:35:00,
2013-03-09 14:40:00,48.0,-0.6,30.24,NW,325,0.0,0.0,13,0.00,CLR,,0.00,WeatherDisplay:10.37,2013-03-09 19:40:00,
2013-03-09 14:45:00,48.6,-0.2,30.23,NNW,329,2.0,6.0,13,0.00,CLR,,0.00,WeatherDisplay:10.37,2013-03-09 19:45:00,
2013-03-09 14:50:00,47.9,-0.7,30.23,NNW,333,0.0,3.0,13,0.00,CLR,,0.00,WeatherDisplay:10.37,2013-03-09 19:50:00,
2013-03-09 14:55:00,49.0,0.2,30.23,NNW,335,0.0,0.0,13,0.00,CLR,,0.00,WeatherDisplay:10.37,2013-03-09 19:55:00,
2013-03-09 15:00:00,48.0,-0.6,30.23,NNW,335,0.0,0.0,13,0.00,CLR,,0.00,WeatherDisplay:10.37,2013-03-09 20:00:00,
2013-03-09 15:05:00,48.8,1.6,30.23,NNW,335,0.0,0.0,14,0.00,CLR,,0.00,WeatherDisplay:10.37,2013-03-09 20:05:00,
2013-03-09 15:10:00,48.4,1.3,30.24,NNW,335,0.0,0.0,14,0.00,CLR,,0.00,WeatherDisplay:10.37,2013-03-09 20:10:00,
2013-03-09 15:15:00,48.3,1.2,30.24,NNW,335,0.0,0.0,14,0.00,CLR,,0.00,WeatherDisplay:10.37,2013-03-09 20:15:00,
2013-03-09 15:25:00,47.4,0.5,30.24,North,0,0.0,0.0,14,0.00,CLR,,0.00,WeatherDisplay:10.37,2013-03-09 20:25:00,
2013-03-09 15:30:00,47.9,0.9,30.24,NNW,328,0.0,7.0,14,0.00,CLR,,0.00,WeatherDisplay:10.37,2013-03-09 20:30:00,
2013-03-09 15:40:00,46.8,0.0,30.24,WNW,284,0.0,0.0,14,0.00,CLR,,0.00,WeatherDisplay:10.37,2013-03-09 20:40:00,
2013-03-09 15:45:00,47.0,0.2,30.23,WNW,284,0.0,0.0,14,0.00,CLR,,0.00,WeatherDisplay:10.37,2013-03-09 20:45:00,
2013-03-09 15:50:00,47.5,0.6,30.23,WNW,284,0.0,0.0,14,0.00,CLR,,0.00,WeatherDisplay:10.37,2013-03-09 20:50:00,
2013-03-09 15:55:00,47.0,0.1,30.24,WNW,284,0.0,0.0,14,0.00,CLR,,0.00,WeatherDisplay:10.37,2013-03-09 20:55:00,
2013-03-09 16:00:00,46.7,0.0,30.24,WNW,284,0.0,0.0,14,0.00,CLR,,0.00,WeatherDisplay:10.37,2013-03-09 21:00:00,
2013-03-09 16:05:00,45.5,0.4,30.24,WNW,284,0.0,3.0,15,0.00,CLR,,0.00,WeatherDisplay:10.37,2013-03-09 21:05:00,
2013-03-09 16:10:00,45.7,0.6,30.24,WNW,284,0.0,0.0,15,0.00,CLR,,0.00,WeatherDisplay:10.37,2013-03-09 21:10:00,
2013-03-09 16:15:00,45.4,0.4,30.24,WNW,284,0.0,0.0,15,0.00,CLR,,0.00,WeatherDisplay:10.37,2013-03-09 21:15:00,
2013-03-09 16:25:00,44.1,-0.7,30.25,WNW,284,0.0,0.0,15,0.00,CLR,,0.00,WeatherDisplay:10.37,2013-03-09 21:25:00,
2013-03-09 16:30:00,44.9,0.0,30.25,WNW,284,0.0,0.0,15,0.00,CLR,,0.00,WeatherDisplay:10.37,2013-03-09 21:30:00,
2013-03-09 16:35:00,43.5,-1.2,30.25,WNW,284,0.0,0.0,15,0.00,CLR,,0.00,WeatherDisplay:10.37,2013-03-09 21:35:00,
2013-03-09 16:40:00,43.1,-1.5,30.25,WNW,284,0.0,0.0,15,0.00,CLR,,0.00,WeatherDisplay:10.37,2013-03-09 21:40:00,
2013-03-09 16:45:00,43.0,-1.6,30.25,WNW,284,0.0,0.0,15,0.00,CLR,,0.00,WeatherDisplay:10.37,2013-03-09 21:45:00,
2013-03-09 16:50:00,43.0,-1.6,30.25,WNW,284,0.0,0.0,15,0.00,CLR,,0.00,WeatherDisplay:10.37,2013-03-09 21:50:00,
2013-03-09 16:55:00,42.2,-2.2,30.26,WNW,284,0.0,0.0,15,0.00,CLR,,0.00,WeatherDisplay:10.37,2013-03-09 21:55:00,
2013-03-09 17:00:00,42.3,-2.2,30.26,WNW,284,0.0,0.0,15,0.00,CLR,,0.00,WeatherDisplay:10.37,2013-03-09 22:00:00,
2013-03-09 17:10:00,41.8,-2.6,30.26,WNW,284,0.0,0.0,15,0.00,CLR,,0.00,WeatherDisplay:10.37,2013-03-09 22:10:00,
2013-03-09 17:15:00,41.7,-2.7,30.27,WNW,284,0.0,0.0,15,0.00,CLR,,0.00,WeatherDisplay:10.37,2013-03-09 22:15:00,
2013-03-09 17:20:00,40.7,-3.4,30.27,WNW,284,0.0,0.0,15,0.00,CLR,,0.00,WeatherDisplay:10.37,2013-03-09 22:20:00,
2013-03-09 17:25:00,40.2,-3.9,30.27,WNW,284,0.0,0.0,15,0.00,CLR,,0.00,WeatherDisplay:10.37,2013-03-09 22:25:00,
2013-03-09 17:30:00,40.1,-3.9,30.27,WNW,284,0.0,0.0,15,0.00,CLR,,0.00,WeatherDisplay:10.37,2013-03-09 22:30:00,
2013-03-09 17:35:00,40.0,-4.1,30.27,WNW,284,0.0,0.0,15,0.00,CLR,,0.00,WeatherDisplay:10.37,2013-03-09 22:35:00,
2013-03-09 17:40:00,39.1,-4.8,30.27,WNW,284,0.0,0.0,15,0.00,CLR,,0.00,WeatherDisplay:10.37,2013-03-09 22:40:00,
2013-03-09 17:45:00,38.7,-5.1,30.28,WNW,284,0.0,0.0,15,0.00,CLR,,0.00,WeatherDisplay:10.37,2013-03-09 22:45:00,
2013-03-09 17:50:00,38.2,-5.5,30.28,WNW,284,0.0,0.0,15,0.00,CLR,,0.00,WeatherDisplay:10.37,2013-03-09 22:50:00,
2013-03-09 17:55:00,37.9,-5.8,30.28,WNW,284,0.0,0.0,15,0.00,CLR,,0.00,WeatherDisplay:10.37,2013-03-09 22:55:00,
2013-03-09 18:00:00,37.7,-5.9,30.28,WNW,284,0.0,0.0,15,0.00,CLR,,0.00,WeatherDisplay:10.37,2013-03-09 23:00:00,
2013-03-09 18:05:00,37.1,19.2,30.28,WNW,284,0.0,0.0,48,0.00,CLR,,0.00,WeatherDisplay:10.37,2013-03-09 23:05:00,
2013-03-09 18:10:00,36.8,18.9,30.29,WNW,284,0.0,0.0,48,0.00,CLR,,0.00,WeatherDisplay:10.37,2013-03-09 23:10:00,
2013-03-09 18:15:00,36.8,18.9,30.29,WNW,284,0.0,0.0,48,0.00,CLR,,0.00,WeatherDisplay:10.37,2013-03-09 23:15:00,
2013-03-09 18:20:00,36.6,18.7,30.29,WNW,284,0.0,0.0,48,0.00,CLR,,0.00,WeatherDisplay:10.37,2013-03-09 23:20:00,
2013-03-09 18:25:00,36.2,18.4,30.29,WNW,284,0.0,0.0,48,0.00,CLR,,0.00,WeatherDisplay:10.37,2013-03-09 23:25:00,
2013-03-09 18:30:00,36.0,18.2,30.29,WNW,284,0.0,0.0,48,0.00,CLR,,0.00,WeatherDisplay:10.37,2013-03-09 23:30:00,
2013-03-09 18:35:00,36.0,18.2,30.29,WNW,284,0.0,0.0,48,0.00,CLR,,0.00,WeatherDisplay:10.37,2013-03-09 23:35:00,
2013-03-09 18:40:00,36.0,18.2,30.29,WNW,284,0.0,0.0,48,0.00,CLR,,0.00,WeatherDisplay:10.37,2013-03-09 23:40:00,
2013-03-09 18:45:00,36.1,18.2,30.29,WNW,284,0.0,0.0,48,0.00,CLR,,0.00,WeatherDisplay:10.37,2013-03-09 23:45:00,
2013-03-09 18:55:00,35.8,18.0,30.30,WNW,284,0.0,0.0,48,0.00,CLR,,0.00,WeatherDisplay:10.37,2013-03-09 23:55:00,
2013-03-09 19:00:00,36.1,18.3,30.30,WNW,284,0.0,0.0,48,0.00,CLR,,0.00,WeatherDisplay:10.37,2013-03-10 00:00:00,
2013-03-09 19:05:00,36.5,23.6,30.30,WNW,284,0.0,0.0,59,0.00,CLR,,0.00,WeatherDisplay:10.37,2013-03-10 00:05:00,
2013-03-09 19:10:00,36.3,23.3,30.31,WNW,284,0.0,0.0,59,0.00,CLR,,0.00,WeatherDisplay:10.37,2013-03-10 00:10:00,
2013-03-09 19:15:00,35.6,22.7,30.31,WNW,284,0.0,0.0,59,0.00,CLR,,0.00,WeatherDisplay:10.37,2013-03-10 00:15:00,
2013-03-09 19:20:00,34.9,22.0,30.31,WNW,284,0.0,0.0,59,0.00,CLR,,0.00,WeatherDisplay:10.37,2013-03-10 00:20:00,
2013-03-09 19:25:00,34.8,21.9,30.31,WNW,284,0.0,0.0,59,0.00,CLR,,0.00,WeatherDisplay:10.37,2013-03-10 00:25:00,
2013-03-09 19:30:00,35.4,22.5,30.31,WNW,284,0.0,0.0,59,0.00,CLR,,0.00,WeatherDisplay:10.37,2013-03-10 00:30:00,
2013-03-09 19:35:00,35.0,22.1,30.31,WNW,284,0.0,0.0,59,0.00,CLR,,0.00,WeatherDisplay:10.37,2013-03-10 00:35:00,
2013-03-09 19:40:00,34.3,21.5,30.32,WNW,284,0.0,0.0,59,0.00,CLR,,0.00,WeatherDisplay:10.37,2013-03-10 00:40:00,
2013-03-09 19:45:00,33.8,21.0,30.32,WNW,284,0.0,0.0,59,0.00,CLR,,0.00,WeatherDisplay:10.37,2013-03-10 00:45:00,
2013-03-09 19:50:00,34.0,21.2,30.32,WNW,284,0.0,0.0,59,0.00,CLR,,0.00,WeatherDisplay:10.37,2013-03-10 00:50:00,
2013-03-09 19:55:00,33.8,21.0,30.32,WNW,284,0.0,0.0,59,0.00,CLR,,0.00,WeatherDisplay:10.37,2013-03-10 00:55:00,
2013-03-09 20:00:00,33.5,20.7,30.33,WNW,284,0.0,0.0,59,0.00,CLR,,0.00,WeatherDisplay:10.37,2013-03-10 01:00:00,
2013-03-09 20:05:00,33.0,22.1,30.33,WNW,284,0.0,0.0,64,0.00,CLR,,0.00,WeatherDisplay:10.37,2013-03-10 01:05:00,
2013-03-09 20:10:00,32.6,21.7,30.33,WNW,284,0.0,0.0,64,0.00,CLR,,0.00,WeatherDisplay:10.37,2013-03-10 01:10:00,
2013-03-09 20:15:00,32.7,21.8,30.33,WNW,284,0.0,0.0,64,0.00,CLR,,0.00,WeatherDisplay:10.37,2013-03-10 01:15:00,
2013-03-09 20:20:00,33.1,22.3,30.33,WNW,284,0.0,0.0,64,0.00,CLR,,0.00,WeatherDisplay:10.37,2013-03-10 01:20:00,
2013-03-09 20:25:00,32.7,21.9,30.34,WNW,284,0.0,0.0,64,0.00,CLR,,0.00,WeatherDisplay:10.37,2013-03-10 01:25:00,
2013-03-09 20:30:00,31.9,21.1,30.34,WNW,284,0.0,0.0,64,0.00,CLR,,0.00,WeatherDisplay:10.37,2013-03-10 01:30:00,
2013-03-09 20:35:00,31.6,20.8,30.34,WNW,284,0.0,0.0,64,0.00,CLR,,0.00,WeatherDisplay:10.37,2013-03-10 01:35:00,
2013-03-09 20:40:00,31.5,20.7,30.34,WNW,284,0.0,0.0,64,0.00,CLR,,0.00,WeatherDisplay:10.37,2013-03-10 01:40:00,
2013-03-09 20:45:00,31.5,20.7,30.34,WNW,284,0.0,0.0,64,0.00,CLR,,0.00,WeatherDisplay:10.37,2013-03-10 01:45:00,
2013-03-09 20:50:00,31.2,20.4,30.34,WNW,284,0.0,0.0,64,0.00,CLR,,0.00,WeatherDisplay:10.37,2013-03-10 01:50:00,
2013-03-09 20:55:00,30.8,20.1,30.34,WNW,284,0.0,0.0,64,0.00,CLR,,0.00,WeatherDisplay:10.37,2013-03-10 01:55:00,
2013-03-09 21:00:00,30.8,20.0,30.34,WNW,284,0.0,0.0,64,0.00,CLR,,0.00,WeatherDisplay:10.37,2013-03-10 02:00:00,
2013-03-09 21:05:00,30.5,24.5,30.34,WNW,284,0.0,0.0,78,0.00,CLR,,0.00,WeatherDisplay:10.37,2013-03-10 02:05:00,
2013-03-09 21:10:00,30.3,24.2,30.34,WNW,284,0.0,0.0,78,0.00,CLR,,0.00,WeatherDisplay:10.37,2013-03-10 02:10:00,
2013-03-09 21:15:00,30.1,24.1,30.34,WNW,284,0.0,0.0,78,0.00,CLR,,0.00,WeatherDisplay:10.37,2013-03-10 02:15:00,
2013-03-09 21:25:00,29.8,23.8,30.34,WNW,284,0.0,0.0,78,0.00,CLR,,0.00,WeatherDisplay:10.37,2013-03-10 02:25:00,
2013-03-09 21:30:00,29.7,23.7,30.34,WNW,284,0.0,0.0,78,0.00,CLR,,0.00,WeatherDisplay:10.37,2013-03-10 02:30:00,
2013-03-09 21:35:00,29.7,23.7,30.34,WNW,284,0.0,0.0,78,0.00,CLR,,0.00,WeatherDisplay:10.37,2013-03-10 02:35:00,
2013-03-09 21:40:00,29.5,23.5,30.34,WNW,284,0.0,0.0,78,0.00,CLR,,0.00,WeatherDisplay:10.37,2013-03-10 02:40:00,
2013-03-09 21:45:00,29.4,23.4,30.34,WNW,284,0.0,0.0,78,0.00,CLR,,0.00,WeatherDisplay:10.37,2013-03-10 02:45:00,
2013-03-09 21:50:00,29.5,23.5,30.35,WNW,284,0.0,0.0,78,0.00,CLR,,0.00,WeatherDisplay:10.37,2013-03-10 02:50:00,
2013-03-09 21:55:00,29.0,23.0,30.35,WNW,284,0.0,0.0,78,0.00,CLR,,0.00,WeatherDisplay:10.37,2013-03-10 02:55:00,
2013-03-09 22:00:00,29.2,23.2,30.35,WNW,284,0.0,0.0,78,0.00,CLR,,0.00,WeatherDisplay:10.37,2013-03-10 03:00:00,
2013-03-09 22:05:00,29.1,24.0,30.35,WNW,284,0.0,0.0,81,0.00,CLR,,0.00,WeatherDisplay:10.37,2013-03-10 03:05:00,
2013-03-09 22:10:00,28.8,23.7,30.35,WNW,284,0.0,0.0,81,0.00,CLR,,0.00,WeatherDisplay:10.37,2013-03-10 03:10:00,
2013-03-09 22:15:00,28.7,23.6,30.36,WNW,284,0.0,0.0,81,0.00,CLR,,0.00,WeatherDisplay:10.37,2013-03-10 03:15:00,
2013-03-09 22:20:00,29.0,23.9,30.36,WNW,284,0.0,0.0,81,0.00,CLR,,0.00,WeatherDisplay:10.37,2013-03-10 03:20:00,
2013-03-09 22:25:00,28.4,23.3,30.36,WNW,284,0.0,0.0,81,0.00,CLR,,0.00,WeatherDisplay:10.37,2013-03-10 03:25:00,
2013-03-09 22:30:00,28.6,23.5,30.36,WNW,284,0.0,0.0,81,0.00,CLR,,0.00,WeatherDisplay:10.37,2013-03-10 03:30:00,
2013-03-09 22:35:00,28.3,23.2,30.36,WNW,284,0.0,0.0,81,0.00,CLR,,0.00,WeatherDisplay:10.37,2013-03-10 03:35:00,
2013-03-09 22:45:00,28.9,23.8,30.36,WNW,284,0.0,0.0,81,0.00,CLR,,0.00,WeatherDisplay:10.37,2013-03-10 03:45:00,
2013-03-09 22:50:00,28.6,23.5,30.36,WNW,284,0.0,0.0,81,0.00,CLR,,0.00,WeatherDisplay:10.37,2013-03-10 03:50:00,
2013-03-09 22:55:00,27.9,22.9,30.36,WNW,284,0.0,0.0,81,0.00,CLR,,0.00,WeatherDisplay:10.37,2013-03-10 03:55:00,
2013-03-09 23:00:00,27.8,22.7,30.37,WNW,284,0.0,0.0,81,0.00,CLR,,0.00,WeatherDisplay:10.37,2013-03-10 04:00:00,
2013-03-09 23:05:00,27.6,23.4,30.37,WNW,284,0.0,0.0,84,0.00,CLR,,0.00,WeatherDisplay:10.37,2013-03-10 04:05:00,
2013-03-09 23:10:00,27.5,23.3,30.37,WNW,284,0.0,0.0,84,0.00,CLR,,0.00,WeatherDisplay:10.37,2013-03-10 04:10:00,
2013-03-09 23:15:00,27.4,23.2,30.38,WNW,284,0.0,0.0,84,0.00,CLR,,0.00,WeatherDisplay:10.37,2013-03-10 04:15:00,
2013-03-09 23:20:00,27.2,23.0,30.38,WNW,284,0.0,0.0,84,0.00,CLR,,0.00,WeatherDisplay:10.37,2013-03-10 04:20:00,
2013-03-09 23:25:00,27.2,23.0,30.38,WNW,284,0.0,0.0,84,0.00,CLR,,0.00,WeatherDisplay:10.37,2013-03-10 04:25:00,
2013-03-09 23:30:00,27.1,22.9,30.38,WNW,284,0.0,0.0,84,0.00,CLR,,0.00,WeatherDisplay:10.37,2013-03-10 04:30:00,
2013-03-09 23:35:00,27.1,22.9,30.38,WNW,284,0.0,0.0,84,0.00,CLR,,0.00,WeatherDisplay:10.37,2013-03-10 04:35:00,
2013-03-09 23:40:00,26.8,22.6,30.38,WNW,284,0.0,0.0,84,0.00,CLR,,0.00,WeatherDisplay:10.37,2013-03-10 04:40:00,
2013-03-09 23:45:00,27.6,23.4,30.38,WNW,284,0.0,0.0,84,0.00,CLR,,0.00,WeatherDisplay:10.37,2013-03-10 04:45:00,
2013-03-09 23:50:00,28.7,24.5,30.38,WNW,284,0.0,0.0,84,0.00,CLR,,0.00,WeatherDisplay:10.37,2013-03-10 04:50:00,
2013-03-09 23:55:00,27.3,23.1,30.38,WNW,284,0.0,0.0,84,0.00,CLR,,0.00,WeatherDisplay:10.37,2013-03-10 04:55:00,